Hourly Weather Bolshie Kaybicy

Today, 20 June, Sunday

Time Temperature Precipitation Wind Pressure Humidity
00:00 +18°C° 0 mm 3 mps 757 mmHg 92%
01:00 +18°C° 0 mm 3 mps 757 mmHg 92%
02:00 +17°C° 0 mm 3 mps 757 mmHg 92%
03:00 +17°C° 0 mm 3 mps 757 mmHg 92%
04:00 +18°C° 0 mm 3 mps 757 mmHg 89%
05:00 +20°C° 0 mm 3 mps 757 mmHg 86%
06:00 +21°C° 0 mm 3 mps 758 mmHg 83%
07:00 +22°C° 0 mm 3 mps 758 mmHg 78%
08:00 +25°C° 0 mm 3 mps 758 mmHg 73%
09:00 +26°C° 0 mm 4 mps 758 mmHg 68%
10:00 +27°C° 0 mm 4 mps 758 mmHg 64%
11:00 +28°C° 0 mm 4 mps 758 mmHg 60%
12:00 +29°C° 0 mm 4 mps 758 mmHg 57%
13:00 +30°C° 0 mm 3 mps 758 mmHg 56%
14:00 +30°C° 0 mm 3 mps 757 mmHg 55%
15:00 +30°C° 0 mm 3 mps 757 mmHg 55%
16:00 +30°C° 0 mm 3 mps 757 mmHg 60%
17:00 +29°C° 0 mm 3 mps 757 mmHg 65%
18:00 +28°C° 0 mm 2 mps 757 mmHg 70%
19:00 +27°C° 0 mm 2 mps 757 mmHg 75%
20:00 +25°C° 0 mm 2 mps 757 mmHg 79%
21:00 +23°C° 0 mm 1 mps 757 mmHg 84%
22:00 +23°C° 0 mm 1 mps 757 mmHg 85%
23:00 +22°C° 0 mm 1 mps 758 mmHg 87%

Tomorrow, 21 June, Monday

Time Temperature Precipitation Wind Pressure Humidity
00:00 +22°C° 0 mm 1 mps 758 mmHg 88%
01:00 +22°C° 0 mm 1 mps 758 mmHg 87%
02:00 +22°C° 0 mm 1 mps 758 mmHg 86%
03:00 +21°C° 0 mm 2 mps 758 mmHg 86%
04:00 +23°C° 0 mm 2 mps 758 mmHg 85%
05:00 +23°C° 0 mm 2 mps 758 mmHg 83%
06:00 +24°C° 0 mm 2 mps 758 mmHg 82%
07:00 +25°C° 0 mm 2 mps 758 mmHg 76%
08:00 +27°C° 0 mm 3 mps 758 mmHg 71%
09:00 +28°C° 0 mm 3 mps 758 mmHg 66%
10:00 +29°C° 0 mm 3 mps 758 mmHg 62%
11:00 +30°C° 0 mm 3 mps 758 mmHg 58%
12:00 +30°C° 0 mm 2 mps 758 mmHg 54%
13:00 +31°C° 0 mm 2 mps 758 mmHg 52%
14:00 +31°C° 0 mm 2 mps 758 mmHg 51%
15:00 +31°C° 0 mm 2 mps 757 mmHg 50%
16:00 +30°C° 0 mm 2 mps 757 mmHg 56%
17:00 +30°C° 0 mm 2 mps 757 mmHg 61%
18:00 +29°C° 0 mm 2 mps 757 mmHg 67%
19:00 +28°C° 0 mm 2 mps 757 mmHg 72%
20:00 +26°C° 0 mm 2 mps 757 mmHg 77%
21:00 +24°C° 0 mm 1 mps 758 mmHg 82%
22:00 +23°C° 0 mm 1 mps 758 mmHg 83%
23:00 +23°C° 0 mm 1 mps 758 mmHg 85%

Day after tomorrow, 22 June, Tuesday

Time Temperature Precipitation Wind Pressure Humidity
00:00 +21°C° 0 mm 2 mps 758 mmHg 87%
01:00 +21°C° 0 mm 2 mps 758 mmHg 88%
02:00 +21°C° 0 mm 2 mps 758 mmHg 88%
03:00 +20°C° 0 mm 2 mps 758 mmHg 89%
04:00 +21°C° 0 mm 2 mps 758 mmHg 86%
05:00 +23°C° 0 mm 2 mps 758 mmHg 83%
06:00 +24°C° 0 mm 2 mps 758 mmHg 80%
07:00 +26°C° 0 mm 2 mps 758 mmHg 75%
08:00 +27°C° 0 mm 2 mps 758 mmHg 70%
09:00 +29°C° 0 mm 2 mps 758 mmHg 65%
10:00 +30°C° 0 mm 2 mps 758 mmHg 62%
11:00 +30°C° 0 mm 3 mps 758 mmHg 59%
12:00 +31°C° 0 mm 3 mps 758 mmHg 55%
13:00 +31°C° 0 mm 3 mps 758 mmHg 55%
14:00 +31°C° 0 mm 2 mps 758 mmHg 54%
15:00 +32°C° 0 mm 2 mps 758 mmHg 53%
16:00 +31°C° 0 mm 2 mps 757 mmHg 57%
17:00 +31°C° 0 mm 2 mps 757 mmHg 61%
18:00 +30°C° 0 mm 2 mps 757 mmHg 65%
19:00 +29°C° 0 mm 2 mps 757 mmHg 69%
20:00 +27°C° 0 mm 2 mps 757 mmHg 73%
21:00 +25°C° 0 mm 2 mps 757 mmHg 77%
22:00 +24°C° 0 mm 2 mps 757 mmHg 80%
23:00 +24°C° 0 mm 2 mps 757 mmHg 82%

23 June, Wednesday

Time Temperature Precipitation Wind Pressure Humidity
00:00 +23°C° 0 mm 2 mps 757 mmHg 85%
01:00 +21°C° 0 mm 2 mps 757 mmHg 86%
02:00 +21°C° 0 mm 2 mps 757 mmHg 88%
03:00 +21°C° 0 mm 2 mps 757 mmHg 89%
04:00 +23°C° 0 mm 2 mps 757 mmHg 86%
05:00 +24°C° 0 mm 2 mps 757 mmHg 82%
06:00 +25°C° 0 mm 2 mps 757 mmHg 79%
07:00 +26°C° 0 mm 2 mps 757 mmHg 74%
08:00 +28°C° 0 mm 3 mps 757 mmHg 69%
09:00 +29°C° 0 mm 3 mps 757 mmHg 64%
10:00 +30°C° 0.3 mm 3 mps 757 mmHg 60%
11:00 +31°C° 0.3 mm 3 mps 757 mmHg 56%
12:00 +31°C° 0.3 mm 3 mps 757 mmHg 51%
13:00 +33°C° 0 mm 3 mps 757 mmHg 50%
14:00 +33°C° 0 mm 3 mps 757 mmHg 48%
15:00 +33°C° 0 mm 3 mps 756 mmHg 47%
16:00 +31°C° 0 mm 3 mps 756 mmHg 53%
17:00 +31°C° 0 mm 3 mps 756 mmHg 60%
18:00 +30°C° 0 mm 3 mps 756 mmHg 66%
19:00 +28°C° 0 mm 3 mps 756 mmHg 71%
20:00 +27°C° 0 mm 3 mps 756 mmHg 76%
21:00 +25°C° 0 mm 3 mps 756 mmHg 81%
22:00 +24°C° 0 mm 2 mps 756 mmHg 83%
23:00 +24°C° 0 mm 2 mps 756 mmHg 84%

24 June, Thursday

Time Temperature Precipitation Wind Pressure Humidity
00:00 +23°C° 0 mm 2 mps 755 mmHg 86%
01:00 +21°C° 0 mm 2 mps 755 mmHg 87%
02:00 +21°C° 0 mm 2 mps 755 mmHg 88%
03:00 +20°C° 0 mm 2 mps 755 mmHg 89%
04:00 +21°C° 0.1 mm 2 mps 755 mmHg 87%
05:00 +23°C° 0.1 mm 2 mps 755 mmHg 84%
06:00 +24°C° 0.1 mm 3 mps 755 mmHg 82%
07:00 +25°C° 0 mm 3 mps 755 mmHg 76%
08:00 +27°C° 0 mm 2 mps 755 mmHg 69%
09:00 +28°C° 0 mm 2 mps 756 mmHg 63%
10:00 +29°C° 0 mm 2 mps 756 mmHg 60%
11:00 +30°C° 0 mm 2 mps 755 mmHg 57%
12:00 +31°C° 0 mm 2 mps 755 mmHg 54%
13:00 +31°C° 0 mm 2 mps 755 mmHg 53%
14:00 +31°C° 0 mm 2 mps 755 mmHg 51%
15:00 +32°C° 0 mm 2 mps 755 mmHg 50%
16:00 +32°C° 0 mm 2 mps 755 mmHg 54%
17:00 +31°C° 0 mm 1 mps 755 mmHg 58%
18:00 +31°C° 0 mm 1 mps 755 mmHg 61%
19:00 +29°C° 0.5 mm 1 mps 755 mmHg 70%
20:00 +26°C° 0.5 mm 2 mps 755 mmHg 78%
21:00 +24°C° 0.5 mm 2 mps 755 mmHg 86%
22:00 +23°C° 0.4 mm 2 mps 755 mmHg 87%
23:00 +23°C° 0.4 mm 1 mps 755 mmHg 88%

25 June, Friday

Time Temperature Precipitation Wind Pressure Humidity
00:00 +23°C° 0.4 mm 1 mps 755 mmHg 89%
01:00 +22°C° 0.1 mm 1 mps 755 mmHg 90%
02:00 +22°C° 0.1 mm 1 mps 755 mmHg 90%
03:00 +22°C° 0.1 mm 1 mps 755 mmHg 91%
04:00 +23°C° 0 mm 1 mps 755 mmHg 89%
05:00 +24°C° 0 mm 1 mps 755 mmHg 86%
06:00 +25°C° 0 mm 1 mps 755 mmHg 83%
07:00 +26°C° 0 mm 1 mps 755 mmHg 77%
08:00 +27°C° 0 mm 1 mps 755 mmHg 71%
09:00 +29°C° 0 mm 2 mps 755 mmHg 65%
10:00 +30°C° 0 mm 2 mps 755 mmHg 62%
11:00 +31°C° 0 mm 2 mps 755 mmHg 59%
12:00 +32°C° 0 mm 2 mps 755 mmHg 56%
13:00 +32°C° 0 mm 2 mps 755 mmHg 55%
14:00 +32°C° 0 mm 2 mps 754 mmHg 54%
15:00 +34°C° 0 mm 2 mps 754 mmHg 53%
16:00 +32°C° 0 mm 2 mps 754 mmHg 57%
17:00 +32°C° 0 mm 2 mps 754 mmHg 61%
18:00 +32°C° 0 mm 2 mps 753 mmHg 65%
19:00 +29°C° 0.4 mm 2 mps 753 mmHg 72%
20:00 +26°C° 0.4 mm 2 mps 753 mmHg 79%
21:00 +23°C° 0.4 mm 2 mps 754 mmHg 86%
22:00 +23°C° 0.2 mm 2 mps 753 mmHg 86%
23:00 +21°C° 0.2 mm 2 mps 753 mmHg 87%
Show more